This is the latest recevied weather packets stored in our database for station/object KA0EGE. If no packets are shown the sender has not sent any weather packets the latest 10 day(s).
| Time | Temp. | Humidity | Pressure | Rain* | Wind** | Luminosity | Snow |
|---|---|---|---|---|---|---|---|
| 1777911771 | 25° C | 35% | 1020.8 hPa | 0 mm | - | 836 W/m² | - |
| 1777911469 | 25° C | 37% | 1020.6 hPa | 0 mm | - | 824 W/m² | - |
| 1777911166 | 25° C | 42% | 1020.7 hPa | 0 mm | - | 809 W/m² | - |
| 1777910863 | 24.44° C | 38% | 1020.8 hPa | 0 mm | - | 798 W/m² | - |
| 1777910559 | 25° C | 36% | 1020.7 hPa | 0 mm | - | 786 W/m² | - |
| 1777910257 | 24.44° C | 42% | 1020.7 hPa | 0 mm | - | 784 W/m² | - |
| 1777909953 | 25° C | 38% | 1021 hPa | 0 mm | - | 771 W/m² | - |
| 1777909651 | 24.44° C | 41% | 1021.2 hPa | 0 mm | - | 761 W/m² | - |
| 1777909348 | 24.44° C | 39% | 1021.4 hPa | 0 mm | - | 751 W/m² | - |
| 1777909046 | 24.44° C | 41% | 1021.3 hPa | 0 mm | - | 740 W/m² | - |
| 1777908743 | 24.44° C | 39% | 1021 hPa | 0 mm | - | 729 W/m² | - |
| 1777908440 | 24.44° C | 37% | 1021 hPa | 0 mm | - | 713 W/m² | - |
| 1777908137 | 23.89° C | 39% | 1021 hPa | 0 mm | - | 703 W/m² | - |
| 1777907833 | 23.89° C | 42% | 1021.2 hPa | 0 mm | - | 691 W/m² | - |
| 1777907528 | 23.33° C | 42% | 1021.2 hPa | 0 mm | - | 679 W/m² | - |
| 1777907225 | 23.33° C | 42% | 1021.2 hPa | 0 mm | - | 667 W/m² | - |
| 1777906922 | 23.89° C | 40% | 1021.1 hPa | 0 mm | - | 653 W/m² | - |
| 1777906620 | 23.33° C | 42% | 1021.2 hPa | 0 mm | - | 639 W/m² | - |
| 1777906315 | 24.44° C | 40% | 1021.3 hPa | 0 mm | - | 625 W/m² | - |
| 1777906012 | 23.89° C | 38% | 1021.2 hPa | 0 mm | - | 612 W/m² | - |
| 1777905708 | 22.78° C | 42% | 1021.2 hPa | 0 mm | - | 594 W/m² | - |
| 1777905405 | 22.78° C | 44% | 1021.4 hPa | 0 mm | - | 571 W/m² | - |
| 1777905103 | 22.78° C | 43% | 1021.3 hPa | 0 mm | - | 563 W/m² | - |
| 1777904800 | 22.78° C | 47% | 1021.4 hPa | 0 mm | - | 562 W/m² | - |
| 1777904497 | 22.78° C | 51% | 1021.3 hPa | 0 mm | - | 542 W/m² | - |
* Rain latest hour (hover to see other rain measurements)
** Current wind speed in m/s (hover to see current wind gust speed)